Content
SEND FEEDBACK

Daily
Averages
Monthly
Summary
United States of America

KINGSTREE, SOUTH CAROLINA


Home > North America > United States > South Carolina
Elevation: 54 feet     Latitude: 33 39N     Longitude: 079 49W

WEATHER
 
SELECT A DAY
Number of Records: 131,289;   Date Range: 12/8/08 - 9/17/14
 
SHARE

PRINT THIS DATA

[ ← Previous Day ]
WEATHER ALMANAC - JANUARY 3, 2013
[ Next Day → ]
[ °C ]   °F
Weather ElementAverageHighLow
Temperature46.1 °F50 °F (12:35 am)37.4 °F (11:15 pm)
Dewpoint45.9 °F50 °F (12:35 am)37.4 °F (11:15 pm)
Humidity99.1 %100 % (12:35 am)87 % (2:55 am)
Barometer30.19 in30.29 in (11:15 pm)30.11 in (2:35 am)
Wind Speed1.9 mph6.9 mph (11:15 am)
Weather ElementAverage
Visibility6.1 mi
Wind DirectionENE (63.5 °)

Weather ElementTotal
Precipitation0.09 in
Heating Degree Days21.3 (Base 65)
Averaged from 66 records on January 3, 2013
WEATHER CONDITIONS BREAKOUT
WIND DIRECTION BREAKOUT
WEATHER BY HOUR - JANUARY 3, 2013
[ °C ]   °F
Local TimeTemperatureDewpointHumidityBarometerVisibilityWind DirectionWind SpeedGust SpeedPrecipitationEventsConditions
12:35 AM50.0 °F50.0 °F100 %30.14 in10.0 miNNE (30°)3.5 mphClear
12:55 AM50.0 °F50.0 °F100 %30.13 in10.0 miNE (50°)3.5 mphClear
1:15 AM50.0 °F48.2 °F94 %30.12 in10.0 miNE (50°)3.5 mphClear
1:35 AM50.0 °F50.0 °F100 %30.12 in10.0 miNE (50°)3.5 mphClear
1:55 AM50.0 °F50.0 °F100 %30.12 in10.0 miNE (50°)3.5 mphClear
2:15 AM50.0 °F50.0 °F100 %30.12 in10.0 miENE (70°)3.5 mphClear
2:35 AM50.0 °F48.2 °F94 %30.11 in10.0 miENE (60°)4.6 mphClear
2:55 AM50.0 °F46.4 °F87 %30.12 in10.0 miENE (70°)4.6 mphClear
3:15 AM48.2 °F46.4 °F93 %30.14 in10.0 miCalmClear
3:35 AM48.2 °F46.4 °F93 %30.14 in10.0 miCalmClear
3:55 AM48.2 °F46.4 °F93 %30.14 in10.0 miCalmClear
4:15 AM48.2 °F46.4 °F93 %30.14 in10.0 miNorth (10°)3.5 mphClear
4:35 AM48.2 °F46.4 °F93 %30.14 in10.0 miCalmClear
4:55 AM46.4 °F46.4 °F100 %30.14 in10.0 miNNE (30°)3.5 mphClear
5:15 AM46.4 °F46.4 °F100 %30.14 in10.0 miCalmClear
5:35 AM46.4 °F46.4 °F100 %30.15 in10.0 miCalmDrizzle
5:55 AM46.4 °F46.4 °F100 %30.14 in10.0 miCalmRainRain
6:15 AM46.4 °F46.4 °F100 %30.14 in7.0 miCalm0.01 inRainLight Rain
6:35 AM46.4 °F46.4 °F100 %30.16 in7.0 miCalm0.01 inRainLight Rain
6:55 AM46.4 °F46.4 °F100 %30.17 in7.0 miCalm0.02 inRainLight Rain
7:15 AM46.4 °F46.4 °F100 %30.17 in7.0 miCalmDrizzle
7:35 AM46.4 °F46.4 °F100 %30.17 in7.0 miENE (70°)3.5 mph0.01 inRainLight Rain
7:55 AM46.4 °F46.4 °F100 %30.18 in7.0 miCalm0.02 inRainLight Rain
8:15 AM46.4 °F46.4 °F100 %30.18 in7.0 miNE (50°)3.5 mphRainRain
8:35 AM46.4 °F46.4 °F100 %30.18 in7.0 miENE (70°)3.5 mphRainLight Rain
8:55 AM46.4 °F46.4 °F100 %30.18 in5.0 miENE (70°)5.8 mphLight Drizzle
9:15 AM46.4 °F46.4 °F100 %30.19 in5.0 miNE (50°)3.5 mphRainLight Rain
9:35 AM46.4 °F46.4 °F100 %30.20 in5.0 miCalmLight Drizzle
9:55 AM46.4 °F46.4 °F100 %30.19 in5.0 miENE (60°)4.6 mphLight Drizzle
10:15 AM46.4 °F46.4 °F100 %30.18 in5.0 miEast (80°)4.6 mphRainLight Rain
10:35 AM46.4 °F46.4 °F100 %30.18 in7.0 miEast (90°)5.8 mph0.01 inRainLight Rain
10:55 AM46.4 °F46.4 °F100 %30.19 in7.0 miEast (100°)3.5 mph0.01 inLight Drizzle
11:15 AM46.4 °F46.4 °F100 %30.19 in7.0 miESE (110°)6.9 mphLight Drizzle
11:35 AM46.4 °F46.4 °F100 %30.18 in7.0 miEast (90°)3.5 mphLight Drizzle
11:55 AM46.4 °F46.4 °F100 %30.18 in7.0 miCalmDrizzle
12:15 PM46.4 °F46.4 °F100 %30.19 in5.0 miNNW (330°)3.5 mphDrizzle
12:35 PM46.4 °F46.4 °F100 %30.18 in5.0 miCalmLight Drizzle
12:55 PM46.4 °F46.4 °F100 %30.18 in5.0 miNNW (330°)3.5 mphLight Drizzle
1:15 PM48.2 °F48.2 °F100 %30.17 in7.0 miCalmClear
1:35 PM46.4 °F46.4 °F100 %30.15 in7.0 miEast (80°)3.5 mphClear
1:55 PM48.2 °F48.2 °F100 %30.14 in7.0 miCalmClear
2:15 PM46.4 °F46.4 °F100 %30.16 in5.0 miNorth (350°)3.5 mphClear
3:15 PM46.4 °F46.4 °F100 %30.15 in5.0 miNorth (350°)3.5 mphClear
3:35 PM46.4 °F46.4 °F100 %30.15 in5.0 miCalmClear
3:55 PM46.4 °F46.4 °F100 %30.18 in5.0 miNorth (350°)3.5 mphClear
4:35 PM46.4 °F46.4 °F100 %30.18 in4.0 miCalmClear
4:55 PM46.4 °F46.4 °F100 %30.18 in5.0 miCalmClear
5:35 PM46.4 °F46.4 °F100 %30.19 in4.0 miNorth (10°)4.6 mphClear
5:55 PM46.4 °F46.4 °F100 %30.20 in3.0 miNorth (360°)4.6 mphClear
6:15 PM46.4 °F46.4 °F100 %30.22 in3.0 miNorth (360°)3.5 mphClear
6:35 PM46.4 °F46.4 °F100 %30.22 in3.0 miNorth (360°)4.6 mphClear
7:15 PM46.4 °F46.4 °F100 %30.25 in5.0 miCalmClear
7:35 PM46.4 °F46.4 °F100 %30.25 in5.0 miCalmClear
7:55 PM44.6 °F44.6 °F100 %30.26 in5.0 miCalmClear
8:15 PM44.6 °F44.6 °F100 %30.26 in5.0 miCalmClear
8:35 PM44.6 °F44.6 °F100 %30.26 in5.0 miCalmClear
8:55 PM44.6 °F44.6 °F100 %30.27 in5.0 miCalmClear
9:15 PM44.6 °F44.6 °F100 %30.27 in4.0 miCalmClear
9:35 PM42.8 °F42.8 °F100 %30.28 in1.8 miCalmMist
9:55 PM42.8 °F42.8 °F100 %30.28 in1.8 miCalmMist
10:15 PM41.0 °F41.0 °F100 %30.28 in1.5 miCalmMist
10:35 PM41.0 °F41.0 °F100 %30.28 in1.0 miCalmMist
10:55 PM39.2 °F39.2 °F100 %30.28 in0.2 miCalmFogFog
11:15 PM37.4 °F37.4 °F100 %30.29 in0.2 miCalmFogFog
11:35 PM37.4 °F37.4 °F100 %30.29 in0.2 miCalmFogFog
11:55 PM37.4 °F37.4 °F100 %30.29 in0.2 miCalmFogFog
Hourly data recorded from KCKI, located miles away from Kingstree, South Carolina







STORIES FROM OUR PARTNERS